Time,TemperatureF,DewpointF,PressureIn,WindDirection,WindDirectionDegrees,WindSpeedMPH,WindSpeedGustMPH,Humidity,HourlyPrecipIn,Conditions,Clouds,dailyrainin,SoftwareType,DateUTC
2013-01-29 12:00:00,35.0,33.0,-100.00,NE,50,2.0,4.0,89,-99.99,,,-99.99,,2013-01-29 17:00:00,
2013-01-29 12:41:00,35.0,33.0,-100.00,NE,50,2.0,4.0,89,-99.99,,,-99.99,,2013-01-29 17:41:00,
2013-01-29 12:52:00,35.0,33.0,-100.00,NE,50,2.0,4.0,89,-99.99,,,-99.99,,2013-01-29 17:52:00,
2013-01-29 13:11:00,36.0,33.0,-100.00,ENE,70,4.0,7.0,88,-99.99,,,-99.99,,2013-01-29 18:11:00,
2013-01-29 19:30:00,37.0,35.0,-100.00,ESE,120,11.0,13.0,91,-99.99,,,-99.99,,2013-01-30 00:30:00,
2013-01-29 20:01:00,37.0,35.0,-100.00,ESE,120,11.0,16.0,91,-99.99,,,-99.99,,2013-01-30 01:01:00,
2013-01-29 20:11:00,37.0,35.0,-100.00,ESE,120,11.0,16.0,91,-99.99,,,-99.99,,2013-01-30 01:11:00,
2013-01-29 20:22:00,37.0,35.0,-100.00,ESE,120,11.0,13.0,91,-99.99,,,-99.99,,2013-01-30 01:22:00,
2013-01-29 20:42:00,37.0,35.0,-100.00,East,100,11.0,13.0,93,-99.99,,,-99.99,,2013-01-30 01:42:00,
2013-01-29 20:51:00,37.0,35.0,-100.00,East,100,11.0,13.0,93,-99.99,,,-99.99,,2013-01-30 01:51:00,
2013-01-29 21:01:00,37.0,35.0,-100.00,East,100,11.0,13.0,93,-99.99,,,-99.99,,2013-01-30 02:01:00,
2013-01-29 21:11:00,37.0,36.0,-100.00,East,100,11.0,13.0,93,-99.99,,,-99.99,,2013-01-30 02:11:00,
2013-01-29 21:21:00,37.0,36.0,-100.00,East,100,11.0,13.0,93,-99.99,,,-99.99,,2013-01-30 02:21:00,
2013-01-29 21:32:00,37.0,36.0,-100.00,ESE,110,11.0,13.0,93,-99.99,,,-99.99,,2013-01-30 02:32:00,
2013-01-29 21:41:00,38.0,36.0,-100.00,East,100,11.0,11.0,93,-99.99,,,-99.99,,2013-01-30 02:41:00,
2013-01-29 21:52:00,38.0,36.0,-100.00,East,100,11.0,11.0,93,-99.99,,,-99.99,,2013-01-30 02:52:00,
2013-01-29 22:02:00,38.0,36.0,-100.00,East,100,11.0,11.0,93,-99.99,,,-99.99,,2013-01-30 03:02:00,
2013-01-29 22:11:00,38.0,36.0,-100.00,East,100,9.0,9.0,94,-99.99,,,-99.99,,2013-01-30 03:11:00,
2013-01-29 22:21:00,38.0,36.0,-100.00,ESE,110,11.0,11.0,94,-99.99,,,-99.99,,2013-01-30 03:21:00,
2013-01-29 22:31:00,38.0,36.0,-100.00,ESE,110,11.0,11.0,94,-99.99,,,-99.99,,2013-01-30 03:31:00,
2013-01-29 22:41:00,38.0,37.0,-100.00,ESE,110,11.0,11.0,95,-99.99,,,-99.99,,2013-01-30 03:41:00,
2013-01-29 22:51:00,38.0,37.0,-100.00,ESE,110,11.0,11.0,95,-99.99,,,-99.99,,2013-01-30 03:51:00,
2013-01-29 23:01:00,38.0,37.0,-100.00,ESE,110,11.0,11.0,95,-99.99,,,-99.99,,2013-01-30 04:01:00,
2013-01-29 23:11:00,38.0,37.0,-100.00,ESE,110,11.0,11.0,94,-99.99,,,-99.99,,2013-01-30 04:11:00,
2013-01-29 23:21:00,38.0,37.0,-100.00,ESE,110,11.0,11.0,94,-99.99,,,-99.99,,2013-01-30 04:21:00,
2013-01-29 23:31:00,38.0,37.0,-100.00,ESE,110,11.0,11.0,94,-99.99,,,-99.99,,2013-01-30 04:31:00,
2013-01-29 23:41:00,38.0,37.0,-100.00,ESE,110,11.0,11.0,94,-99.99,,,-99.99,,2013-01-30 04:41:00,